This demonstration page uses our WeatherBlox Daily Observations layout. Learn more.

39.08367, -84.50855

Hourly Observations for October 13, 2019

Temp ( °F °C ) Dew Point ( °F °C ) Humidity (%) Winds ( mph kmh ) Pressure ( in mb ) Visibility ( mi km ) Precip ( " mm )
12:53 am 00:53 Clear 37 2.8 36 2.2 96 96 Calm 30.09 1019 8 12.87472 0 0
1:53 am 01:53 Clear 37 2.8 35 1.7 93 93 Calm 30.08 1019 9 14.48406 0 0
2:53 am 02:53 Clear 37 2.8 36 2.2 96 96 ENE 3 6 30.07 1018 8 12.87472 0 0
3:53 am 03:53 Clear 35 1.7 34 1.1 96 96 NNE 3 6 30.07 1018 7 11.26538 0 0
4:53 am 04:53 Clear 36 2.2 35 1.7 97 97 NE 3 6 30.08 1019 8 12.87472 0 0
5:12 am 05:12 Clear with Mist and Fog 34 1.1 33 0.6 97 97 Calm 30.1 1019 1.75 2.816345 0 0
5:24 am 05:24 Clear with Mist and Fog 35 1.7 34 1.1 96 96 NE 3 6 30.09 1019 3 4.82802 0 0
5:53 am 05:53 Clear 34 1.1 33 0.6 97 97 Calm 30.07 1018 8 12.87472 0 0
6:24 am 06:24 Clear with Mist and Fog 33 0.6 32 0 96 96 NE 3 6 30.1 1019 1.5 2.41401 0 0
6:41 am 06:41 Clear with Mist and Fog 33 0.6 32 0 96 96 E 3 6 30.1 1019 3 4.82802 0 0
6:53 am 06:53 Clear with Mist and Fog 33 0.6 32 0 96 96 Calm 30.07 1018 3 4.82802 0 0
7:50 am 07:50 Sunny with Mist and Fog 32 0 32 0 100 100 NE 5 7 30.1 1019 1.75 2.816345 0 0
7:53 am 07:53 Sunny with Mist and Fog 33 0.6 32 0 96 96 NE 3 6 30.08 1019 4 6.43736 0 0
8:53 am 08:53 Sunny 36 2.2 35 1.7 97 97 Calm 30.08 1019 7 11.26538 0 0
9:53 am 09:53 Sunny 45 7.2 39 3.9 80 80 SSW 7 11 30.07 1018 10 16.0934 0 0
10:53 am 10:53 Sunny 51 10.6 40 4.4 66 66 S 9 15 30.06 1018 10 16.0934 0 0
11:53 am 11:53 Sunny 57 13.9 40 4.4 53 53 S 9 15 30.04 1017 10 16.0934 0 0
12:53 pm 12:53 Sunny 61 16.1 36 2.2 39 39 SSW 10 17 30.01 1016 10 16.0934 0 0
1:53 pm 13:53 Sunny 65 18.3 38 3.3 37 37 SSW 13 20 29.97 1015 10 16.0934 0 0
2:53 pm 14:53 Sunny 67 19.4 36 2.2 32 32 S 12 19 29.94 1014 10 16.0934 0 0
3:53 pm 15:53 Sunny 68 20 36 2.2 31 31 SSW 14 22 29.93 1013 10 16.0934 0 0
4:53 pm 16:53 Sunny 68 20 34 1.1 28 28 SW 12 19 29.92 1013 10 16.0934 0 0
5:53 pm 17:53 Sunny 67 19.4 33 0.6 28 28 SSW 15 24 29.93 1014 10 16.0934 0 0
6:53 pm 18:53 Sunny 58 14.4 36 2.2 44 44 SSW 12 19 29.93 1014 10 16.0934 0 0
7:53 pm 19:53 Clear 50 10 37 2.8 61 61 SSW 7 11 29.95 1014 10 16.0934 0 0
8:53 pm 20:53 Clear 50 10 41 5 71 71 S 3 6 29.97 1015 10 16.0934 0 0
9:53 pm 21:53 Clear 47 8.3 38 3.3 71 71 SSW 9 15 29.96 1015 10 16.0934 0 0
10:53 pm 22:53 Clear 51 10.6 40 4.4 66 66 SW 7 11 29.97 1015 10 16.0934 0 0
11:53 pm 23:53 Clear 50 10 39 3.9 66 66 SW 9 15 29.98 1015 10 16.0934 0 0

Powered by AerisWeather